sat.trackr.live / text

‹ back to catalog

TIGER-7

NORAD 59141 · 2024-043AV

PAYLOAD ACTIVE UNKNOWN

§ Identity

Operator
Country
RWA
Launch date
2024-03-04
Launch site
AFWTR
Launch vehicle
Mass (kg)
RCS (m²)

External: N2YO · Heavens-Above · Gunter

§ Orbital elements

Epoch: 2026-05-24T23:54:17.044704Z

Period
93.03 min
Inclination
97.5458°
Eccentricity
0.0004800
Mean motion
15.47932839 rev/d
Perigee alt
419.5 km
Apogee alt
426.0 km
Semi-major
6,800.9 km
B*
2.3168e-4
RAAN
294.9539°
Arg perigee
250.5379°
Mean anomaly
109.5352°
Rev number
12,438

§ Raw data

TIGER-71 59141U 24043AV  26144.99603061  .00011990  00000+0  23168-3 0  99962 59141  97.5458 294.9539 0004800 250.5379 109.5352 15.47932839124388

JSON: /api/v1/satellites/59141 · /tle

For live sub-satellite position, see the globe view (requires WebGL).

§ Visibility from observer

Set your observer location to see the next 7 days of passes ≥ 10°. The values pass through the URL so the page stays shareable.

No JS? Fill the form by hand. The geolocation button needs JavaScript.

§ Radio — SatNOGS DB

ModeDescriptionDownlinkUplink
BPSK S-band telemetry 2.241 GHz

1 transmitter · refreshed weekly from db.satnogs.org